Dades meteomassalio
Diari Summary for Juny 6, 2017 Units:  Metric    English   Both
« Previous Day
Next Day »
Diari Semanal Mensual Anual Personalitzat
  Maxima: Minima: Mijana:
Temperatura: -17.8 °C -10.9 °C -6.8 °C
Rosada: -17.8 °C -11.8 °C -11.2 °C
Humitat: Humidity % 42 % 63 %
Velocitat del vent: 0 km/h 0 km/h 29.6 km/h
Racha vent: 0 km/h - -
Vent:- - WNW
Pressio: 0 hPa 34256.2 hPa -
Pluja: 0 mm    
Historical Graphs
 
 
Tabular Data for Juny 6, 2017
Time Temperature Dew Point Pressure Wind Wind Speed Wind Gust Humidity Rainfall Rate (Hourly) solar Conditions
-17.8 °C -17.8 °C 0 hPa Calm     Humidity % 0 mm SolarRadiationWatts/m^2 W/m2 Conditions
00:04 -9 °C -10.7 °C 34303.6 hPa Calm     82 % 0 mm 0.0 W/m2 RA
00:09 -9.1 °C -10.8 °C 34303.6 hPa Calm     82 % 0 mm 0.0 W/m2 CLR
00:14 -9.1 °C -10.7 °C 34303.6 hPa Calm     83 % 0 mm 0.0 W/m2 CLR
00:19 -9.2 °C -10.8 °C 34303.6 hPa Calm     83 % 0 mm 0.0 W/m2 CLR
00:24 -9.1 °C -10.8 °C 34303.6 hPa Calm     82 % 0 mm 0.0 W/m2 CLR
00:29 -9 °C -10.8 °C 34303.6 hPa Calm     81 % 0 mm 0.0 W/m2 CLR
00:34 -9 °C -10.9 °C 34303.6 hPa Calm     80 % 0 mm 0.0 W/m2 CLR
00:39 -9.1 °C -10.7 °C 34303.6 hPa Calm     82 % 0 mm 0.0 W/m2 CLR
00:44 -9.1 °C -10.8 °C 34303.6 hPa Calm     82 % 0 mm 0.0 W/m2 CLR
00:49 -9.2 °C -10.8 °C 34303.6 hPa Calm     83 % 0 mm 0.0 W/m2 CLR
00:54 -9.3 °C -10.9 °C 34303.6 hPa Calm     83 % 0 mm 0.0 W/m2 CLR
00:59 -9.4 °C -10.9 °C 34303.6 hPa Calm     84 % 0 mm 0.0 W/m2 CLR
01:04 -9.6 °C -10.9 °C 34303.6 hPa Calm     85 % 0 mm 0.0 W/m2 CLR
01:09 -9.6 °C -11 °C 34303.6 hPa Calm     85 % 0 mm 0.0 W/m2 CLR
01:14 -9.7 °C -11 °C 34293.4 hPa Calm     86 % 0 mm 0.0 W/m2 CLR
01:19 -9.8 °C -11.1 °C 34293.4 hPa Calm     86 % 0 mm 0.0 W/m2 CLR
01:24 -9.8 °C -11 °C 34293.4 hPa Calm     87 % 0 mm 0.0 W/m2 CLR
01:29 -9.8 °C -11 °C 34293.4 hPa Calm     87 % 0 mm 0.0 W/m2 CLR
01:34 -9.8 °C -11 °C 34293.4 hPa Calm     87 % 0 mm 0.0 W/m2 CLR
01:39 -9.9 °C -11.1 °C 34293.4 hPa Calm     87 % 0 mm 0.0 W/m2 CLR
01:44 -9.9 °C -11.2 °C 34293.4 hPa Calm     87 % 0 mm 0.0 W/m2 CLR
01:49 -10 °C -11.2 °C 34293.4 hPa Calm     87 % 0 mm 0.0 W/m2 CLR
01:54 -10.1 °C -11.1 °C 34293.4 hPa Calm     88 % 0 mm 0.0 W/m2 CLR
01:59 -10.1 °C -11.2 °C 34293.4 hPa Calm     88 % 0 mm 0.0 W/m2 CLR
02:04 -10.1 °C -11.2 °C 34293.4 hPa Calm     88 % 0 mm 0.0 W/m2 CLR
02:09 -10.2 °C -11.3 °C 34293.4 hPa Calm     88 % 0 mm 0.0 W/m2 CLR
02:14 -10.2 °C -11.2 °C 34293.4 hPa Calm     89 % 0 mm 0.0 W/m2 CLR
02:19 -10.2 °C -11.2 °C 34279.9 hPa Calm     89 % 0 mm 0.0 W/m2 CLR
02:24 -10.3 °C -11.3 °C 34279.9 hPa Calm     89 % 0 mm 0.0 W/m2 CLR
02:29 -10.3 °C -11.3 °C 34279.9 hPa Calm     89 % 0 mm 0.0 W/m2 CLR
02:34 -10.4 °C -11.4 °C 34279.9 hPa Calm     89 % 0 mm 0.0 W/m2 CLR
02:39 -10.4 °C -11.3 °C 34279.9 hPa Calm     90 % 0 mm 0.0 W/m2 CLR
02:44 -10.4 °C -11.3 °C 34279.9 hPa Calm     90 % 0 mm 0.0 W/m2 CLR
02:49 -10.4 °C -11.3 °C 34279.9 hPa Calm     90 % 0 mm 0.0 W/m2 CLR
02:54 -10.5 °C -11.4 °C 34279.9 hPa Calm     90 % 0 mm 0.0 W/m2 CLR
02:59 -10.5 °C -11.4 °C 34269.7 hPa Calm     90 % 0 mm 0.0 W/m2 CLR
03:04 -10.6 °C -11.4 °C 34279.9 hPa Calm     90 % 0 mm 0.0 W/m2 CLR
03:09 -10.6 °C -11.4 °C 34279.9 hPa Calm     91 % 0 mm 0.0 W/m2 CLR
03:14 -10.6 °C -11.4 °C 34279.9 hPa Calm     91 % 0 mm 0.0 W/m2 CLR
03:19 -10.7 °C -11.6 °C 34269.7 hPa Calm     90 % 0 mm 0.0 W/m2 CLR
03:24 -10.7 °C -11.5 °C 34269.7 hPa Calm     91 % 0 mm 0.0 W/m2 CLR
03:25 -10.7 °C -11.5 °C 34269.7 hPa Calm     91 % 0 mm 0.0 W/m2 CLR
03:30 -10.7 °C -11.4 °C 34269.7 hPa Calm     91 % 0 mm 0.0 W/m2 CLR
03:35 -10.7 °C -11.5 °C 34269.7 hPa Calm     91 % 0 mm 0.0 W/m2 CLR
03:40 -10.7 °C -11.5 °C 34269.7 hPa Calm     91 % 0 mm 0.0 W/m2 CLR
03:45 -10.8 °C -11.6 °C 34256.2 hPa Calm     91 % 0 mm 0.0 W/m2 CLR
03:50 -10.7 °C -11.5 °C 34256.2 hPa Calm     91 % 0 mm 0.0 W/m2 CLR
03:55 -10.7 °C -11.4 °C 34256.2 hPa Calm     91 % 0 mm 0.0 W/m2 CLR
04:00 -10.7 °C -11.4 °C 34256.2 hPa Calm     91 % 0 mm 0.0 W/m2 CLR
04:05 -10.7 °C -11.5 °C 34256.2 hPa Calm     91 % 0 mm 0.0 W/m2 CLR
04:10 -10.7 °C -11.5 °C 34256.2 hPa Calm     91 % 0 mm 0.0 W/m2 CLR
04:15 -10.7 °C -11.5 °C 34256.2 hPa Calm     91 % 0 mm 0.0 W/m2 CLR
04:20 -10.8 °C -11.6 °C 34256.2 hPa Calm     91 % 0 mm 0.0 W/m2 CLR
04:25 -10.8 °C -11.6 °C 34256.2 hPa Calm     91 % 0 mm 0.0 W/m2 CLR
04:30 -10.8 °C -11.6 °C 34256.2 hPa Calm     91 % 0 mm 0.0 W/m2 CLR
04:35 -10.8 °C -11.6 °C 34256.2 hPa Calm     91 % 0 mm 0.0 W/m2 CLR
04:40 -10.8 °C -11.6 °C 34256.2 hPa Calm     91 % 0 mm 0.0 W/m2 CLR
04:45 -10.8 °C -11.6 °C 34256.2 hPa Calm     91 % 0 mm 0.0 W/m2 CLR
04:50 -10.8 °C -11.6 °C 34256.2 hPa Calm     91 % 0 mm 0.0 W/m2 CLR
04:51 -10.8 °C -11.6 °C 34256.2 hPa Calm     91 % 0 mm 0.0 W/m2 CLR
04:56 -10.8 °C -11.6 °C 34256.2 hPa Calm     91 % 0 mm 0.0 W/m2 CLR
05:01 -10.8 °C -11.6 °C 34256.2 hPa Calm     91 % 0 mm 0.0 W/m2 CLR
05:06 -10.8 °C -11.6 °C 34256.2 hPa Calm     91 % 0 mm 0.0 W/m2 CLR
05:11 -10.9 °C -11.7 °C 34256.2 hPa Calm     91 % 0 mm 0.0 W/m2 CLR
05:16 -10.9 °C -11.7 °C 34256.2 hPa Calm     91 % 0 mm 0.0 W/m2 CLR
05:21 -10.9 °C -11.7 °C 34269.7 hPa Calm     91 % 0 mm 0.0 W/m2 CLR
05:26 -10.8 °C -11.6 °C 34269.7 hPa Calm     92 % 0 mm 0.0 W/m2 CLR
05:31 -10.7 °C -11.6 °C 34269.7 hPa Calm     91 % 0 mm 0.0 W/m2 CLR
05:36 -10.8 °C -11.6 °C 34269.7 hPa Calm     91 % 0 mm 0.0 W/m2 CLR
05:41 -10.8 °C -11.6 °C 34269.7 hPa Calm     91 % 0 mm 0.0 W/m2 CLR
05:46 -10.8 °C -11.6 °C 34269.7 hPa Calm     91 % 0 mm 0.0 W/m2 CLR
05:51 -10.8 °C -11.6 °C 34269.7 hPa Calm     91 % 0 mm 0.0 W/m2 CLR
05:56 -10.8 °C -11.6 °C 34269.7 hPa Calm     91 % 0 mm 0.0 W/m2 CLR
06:01 -10.9 °C -11.7 °C 34269.7 hPa Calm     91 % 0 mm 0.0 W/m2 CLR
06:06 -10.9 °C -11.7 °C 34269.7 hPa Calm     91 % 0 mm 0.0 W/m2 CLR
06:11 -10.8 °C -11.6 °C 34269.7 hPa Calm     91 % 0 mm 0.0 W/m2 CLR
06:16 -10.8 °C -11.6 °C 34269.7 hPa Calm     91 % 0 mm 0.0 W/m2 CLR
06:21 -10.7 °C -11.4 °C 34269.7 hPa West 29.8 km/h 29.8 km/h 91 % 0 mm 5.0 W/m2 OVC
06:26 -9.1 °C -11.3 °C 34269.7 hPa WSW 29.8 km/h 29.8 km/h 77 % 0 mm 7.0 W/m2 OVC
06:31 -8.2 °C -11.5 °C 34269.7 hPa West 29.8 km/h 29.8 km/h 68 % 0 mm 9.0 W/m2 BKN
06:36 -7.9 °C -11.8 °C 34279.9 hPa WSW 25.9 km/h 25.9 km/h 64 % 0 mm 11.0 W/m2 BKN
06:41 -7.8 °C -11.8 °C 34279.9 hPa WSW 23.8 km/h 23.8 km/h 63 % 0 mm 14.0 W/m2 BKN
06:46 -7.8 °C -11.8 °C 34279.9 hPa West 17.9 km/h 17.9 km/h 63 % 0 mm 16.0 W/m2 BKN
06:52 -7.8 °C -11.8 °C 34293.4 hPa WSW 15 km/h 15 km/h 63 % 0 mm 19.0 W/m2 BKN
06:57 -7.9 °C -11.7 °C 34279.9 hPa WSW 15 km/h 15 km/h 64 % 0 mm 19.0 W/m2 BKN
06:58 -7.9 °C -11.8 °C 34293.4 hPa WSW 15 km/h 15 km/h 64 % 0 mm 21.0 W/m2 BKN
07:03 -8.1 °C -11.8 °C 34293.4 hPa WSW 15 km/h 15 km/h 65 % 0 mm 26.0 W/m2 BKN
07:08 -8.2 °C -11.7 °C 34293.4 hPa SW 9 km/h 9 km/h 66 % 0 mm 40.0 W/m2 BKN
07:13 -8.1 °C -11.8 °C 34293.4 hPa West 12.9 km/h 12.9 km/h 65 % 0 mm 53.0 W/m2 SCT
07:18 -8 °C -11.5 °C 34303.6 hPa WNW 15.6 km/h 15.6 km/h 67 % 0 mm 65.0 W/m2 SCT
07:23 -7.8 °C -11.6 °C 34303.6 hPa West 25.9 km/h 25.9 km/h 64 % 0 mm 79.0 W/m2 FEW
07:24 -7.8 °C -11.6 °C 34303.6 hPa West 26.9 km/h 26.9 km/h 64 % 0 mm 83.0 W/m2 FEW
07:29 -7.4 °C -11.6 °C 34303.6 hPa West 17.9 km/h 17.9 km/h 62 % 0 mm 97.0 W/m2 FEW
07:34 -7.3 °C -11.6 °C 34303.6 hPa West 18.2 km/h 18.2 km/h 61 % 0 mm 111.0 W/m2 CLR
07:39 -7.2 °C -11.6 °C 34303.6 hPa WSW 29.8 km/h 29.8 km/h 60 % 0 mm 121.0 W/m2 CLR
07:44 -7.1 °C -11.6 °C 34303.6 hPa West 38.8 km/h 38.8 km/h 59 % 0 mm 134.0 W/m2 CLR
07:49 -6.9 °C -11.7 °C 34303.6 hPa WSW 41.7 km/h 41.7 km/h 58 % 0 mm 149.0 W/m2 CLR
07:54 -6.9 °C -11.6 °C 34303.6 hPa West 36.2 km/h 36.2 km/h 58 % 0 mm 167.0 W/m2 CLR
07:59 -6.8 °C -11.6 °C 34303.6 hPa West 20.9 km/h 20.9 km/h 58 % 0 mm 183.0 W/m2 CLR
08:04 -6.8 °C -11.5 °C 34303.6 hPa West 35.7 km/h 35.7 km/h 58 % 0 mm 197.0 W/m2 CLR
08:09 -6.7 °C -11.4 °C 34313.7 hPa West 20.9 km/h 20.9 km/h 58 % 0 mm 223.0 W/m2 CLR
08:14 -6.7 °C -11.4 °C 34313.7 hPa West 33.6 km/h 33.6 km/h 58 % 0 mm 250.0 W/m2 CLR
08:19 -6.6 °C -11.2 °C 34313.7 hPa WNW 41.7 km/h 41.7 km/h 59 % 0 mm 264.0 W/m2 CLR
08:24 -6.6 °C -11.3 °C 34313.7 hPa NW 47.6 km/h 47.6 km/h 58 % 0 mm 269.0 W/m2 CLR
08:29 -6.6 °C -11.2 °C 34313.7 hPa WNW 26.9 km/h 26.9 km/h 59 % 0 mm 279.0 W/m2 CLR
08:34 -6.6 °C -11.2 °C 34327.3 hPa WNW 23.8 km/h 23.8 km/h 59 % 0 mm 301.0 W/m2 CLR
08:39 -6.5 °C -10.9 °C 34327.3 hPa WNW 33.6 km/h 33.6 km/h 60 % 0 mm 316.0 W/m2 CLR
08:44 -6.5 °C -11.1 °C 34327.3 hPa NW 44.7 km/h 44.7 km/h 59 % 0 mm 325.0 W/m2 CLR
08:49 -6.4 °C -11.1 °C 34327.3 hPa WNW 41.7 km/h 41.7 km/h 59 % 0 mm 343.0 W/m2 CLR
08:54 -6.4 °C -11.2 °C 34327.3 hPa NNW 47.6 km/h 47.6 km/h 58 % 0 mm 357.0 W/m2 CLR
08:59 -6.3 °C -10.9 °C 34327.3 hPa NW 36.2 km/h 36.2 km/h 59 % 0 mm 376.0 W/m2 CLR
09:04 -6.3 °C -10.9 °C 34327.3 hPa NNW 35.7 km/h 35.7 km/h 59 % 0 mm 394.0 W/m2 CLR
09:09 -6.2 °C -11 °C 34327.3 hPa WNW 50.7 km/h 50.7 km/h 58 % 0 mm 278.0 W/m2 CLR
09:10 -6.2 °C -11 °C 34327.3 hPa WNW 44.7 km/h 44.7 km/h 58 % 0 mm 401.0 W/m2 CLR
09:15 -6.2 °C -10.9 °C 34337.4 hPa WNW 36.2 km/h 36.2 km/h 58 % 0 mm 396.0 W/m2 CLR
09:20 -6.2 °C -11.1 °C 34337.4 hPa NW 54.4 km/h 54.4 km/h 57 % 0 mm 436.0 W/m2 CLR
09:25 -6.2 °C -11.1 °C 34337.4 hPa NW 47.6 km/h 47.6 km/h 57 % 0 mm 436.0 W/m2 CLR
09:30 -6.1 °C -10.8 °C 34327.3 hPa NW 38.8 km/h 38.8 km/h 58 % 0 mm 464.0 W/m2 CLR
09:35 -6 °C -10.9 °C 34327.3 hPa WNW 50.7 km/h 50.7 km/h 57 % 0 mm 489.0 W/m2 CLR
09:40 -6.1 °C -10.7 °C 34327.3 hPa WNW 44.7 km/h 44.7 km/h 59 % 0 mm 429.0 W/m2 CLR
09:45 -6.1 °C -10.9 °C 34327.3 hPa NNW 56.6 km/h 56.6 km/h 58 % 0 mm 522.0 W/m2 CLR
09:50 -6.1 °C -10.8 °C 34327.3 hPa NW 53.6 km/h 53.6 km/h 58 % 0 mm 517.0 W/m2 CLR
09:55 -6.1 °C -10.9 °C 34327.3 hPa NW 50.7 km/h 50.7 km/h 57 % 0 mm 548.0 W/m2 CLR
10:00 -5.9 °C -10.7 °C 34337.4 hPa NNW 47.6 km/h 47.6 km/h 58 % 0 mm 547.0 W/m2 CLR
10:05 -5.9 °C -10.8 °C 34327.3 hPa NW 41.7 km/h 41.7 km/h 57 % 0 mm 559.0 W/m2 CLR
10:10 -5.8 °C -11.1 °C 34327.3 hPa NW 56.6 km/h 56.6 km/h 55 % 0 mm 585.0 W/m2 CLR
10:15 -5.8 °C -10.9 °C 34337.4 hPa NNW 50.7 km/h 50.7 km/h 56 % 0 mm 582.0 W/m2 CLR
10:20 -5.7 °C -10.8 °C 34327.3 hPa NW 50.7 km/h 50.7 km/h 56 % 0 mm 603.0 W/m2 CLR
10:25 -5.7 °C -10.8 °C 34327.3 hPa NW 65.5 km/h 65.5 km/h 56 % 0 mm 642.0 W/m2 CLR
10:30 -5.6 °C -10.4 °C 34327.3 hPa WNW 47.6 km/h 47.6 km/h 58 % 0 mm 649.0 W/m2 CLR
10:35 -5.6 °C -10.8 °C 34327.3 hPa NW 53.6 km/h 53.6 km/h 55 % 0 mm 657.0 W/m2 CLR
10:40 -5.6 °C -10.9 °C 34327.3 hPa NNW 53.6 km/h 53.6 km/h 55 % 0 mm 677.0 W/m2 CLR
10:46 -5.6 °C -10.5 °C 34327.3 hPa NNW 47.6 km/h 47.6 km/h 57 % 0 mm 659.0 W/m2 CLR
10:51 -5.4 °C -10.3 °C 34327.3 hPa NW 41.7 km/h 41.7 km/h 58 % 0 mm 691.0 W/m2 CLR
10:56 -5.4 °C -10.6 °C 34327.3 hPa NW 53.6 km/h 53.6 km/h 56 % 0 mm 701.0 W/m2 CLR
11:01 -5.5 °C -10.4 °C 34327.3 hPa NNW 56.6 km/h 56.6 km/h 57 % 0 mm 717.0 W/m2 CLR
11:06 -5.4 °C -10.4 °C 34327.3 hPa NNW 50.7 km/h 50.7 km/h 57 % 0 mm 708.0 W/m2 CLR
11:11 -5.4 °C -10.2 °C 34327.3 hPa NW 50.7 km/h 50.7 km/h 58 % 0 mm 700.0 W/m2 CLR
11:16 -5.4 °C -10.6 °C 34337.4 hPa NW 53.6 km/h 53.6 km/h 56 % 0 mm 754.0 W/m2 CLR
11:21 -5.3 °C -10.4 °C 34337.4 hPa NW 35.7 km/h 35.7 km/h 56 % 0 mm 758.0 W/m2 CLR
11:26 -5.3 °C -10.6 °C 34337.4 hPa NNW 65.5 km/h 65.5 km/h 55 % 0 mm 765.0 W/m2 CLR
11:31 -5.3 °C -10.8 °C 34337.4 hPa NW 56.6 km/h 56.6 km/h 54 % 0 mm 795.0 W/m2 CLR
11:36 -5.3 °C -10.4 °C 34337.4 hPa NNW 35.7 km/h 35.7 km/h 56 % 0 mm 800.0 W/m2 CLR
11:41 -5.2 °C -10.7 °C 34337.4 hPa WNW 50.7 km/h 50.7 km/h 54 % 0 mm 810.0 W/m2 CLR
11:46 -5.2 °C -10.8 °C 34337.4 hPa NW 47.6 km/h 47.6 km/h 53 % 0 mm 814.0 W/m2 CLR
11:51 -5.2 °C -10.7 °C 34337.4 hPa NW 59.5 km/h 59.5 km/h 54 % 0 mm 821.0 W/m2 CLR
11:56 -5.2 °C -10.9 °C 34347.6 hPa NW 68.6 km/h 68.6 km/h 52 % 0 mm 819.0 W/m2 CLR
12:01 -5.2 °C -10.6 °C 34337.4 hPa NW 68.6 km/h 68.6 km/h 54 % 0 mm 851.0 W/m2 CLR
12:06 -5.2 °C -10.7 °C 34347.6 hPa WNW 62.6 km/h 62.6 km/h 54 % 0 mm 856.0 W/m2 CLR
12:11 -5.2 °C -10.7 °C 34347.6 hPa NW 53.6 km/h 53.6 km/h 54 % 0 mm 844.0 W/m2 CLR
12:16 -5.1 °C -10.9 °C 34347.6 hPa NNW 51.8 km/h 51.8 km/h 52 % 0 mm 856.0 W/m2 CLR
12:21 -5.1 °C -10.7 °C 34361.1 hPa NNW 50.7 km/h 50.7 km/h 53 % 0 mm 867.0 W/m2 CLR
12:26 -5.1 °C -10.5 °C 34361.1 hPa NW 47.6 km/h 47.6 km/h 54 % 0 mm 844.0 W/m2 CLR
12:31 -4.9 °C -10.6 °C 34347.6 hPa NW 50.7 km/h 50.7 km/h 53 % 0 mm 877.0 W/m2 CLR
12:36 -5.1 °C -10.5 °C 34347.6 hPa NW 62.1 km/h 62.1 km/h 54 % 0 mm 898.0 W/m2 CLR
12:41 -5.1 °C -10.2 °C 34347.6 hPa NNW 56.6 km/h 56.6 km/h 56 % 0 mm 877.0 W/m2 CLR
12:46 -4.9 °C -10.6 °C 34361.1 hPa NW 59.5 km/h 59.5 km/h 53 % 0 mm 918.0 W/m2 CLR
12:51 -4.9 °C -10.3 °C 34347.6 hPa North 53.6 km/h 53.6 km/h 54 % 0 mm 918.0 W/m2 CLR
12:56 -4.9 °C -10.4 °C 34361.1 hPa NNW 57 km/h 57 km/h 54 % 0 mm 942.0 W/m2 CLR
13:01 -4.9 °C -10.5 °C 34361.1 hPa NNW 50.7 km/h 50.7 km/h 53 % 0 mm 930.0 W/m2 CLR
13:06 -4.8 °C -10.4 °C 34361.1 hPa WNW 50.7 km/h 50.7 km/h 53 % 0 mm 937.0 W/m2 CLR
13:11 -4.7 °C -10.2 °C 34347.6 hPa NNW 41.7 km/h 41.7 km/h 54 % 0 mm 933.0 W/m2 CLR
13:16 -4.7 °C -10.6 °C 34347.6 hPa NNW 50.7 km/h 50.7 km/h 51 % 0 mm 949.0 W/m2 CLR
13:21 -4.6 °C -10.3 °C 34347.6 hPa WNW 50.7 km/h 50.7 km/h 52 % 0 mm 956.0 W/m2 CLR
13:22 -4.6 °C -10.5 °C 34347.6 hPa WNW 50.7 km/h 50.7 km/h 51 % 0 mm 923.0 W/m2 CLR
13:27 -4.5 °C -10.7 °C 34347.6 hPa NNW 38.8 km/h 38.8 km/h 50 % 0 mm 939.0 W/m2 CLR
13:32 -4.6 °C -10.7 °C 34361.1 hPa NW 65.5 km/h 65.5 km/h 50 % 0 mm 914.0 W/m2 CLR
13:37 -4.7 °C -10.9 °C 34347.6 hPa NNW 65.5 km/h 65.5 km/h 49 % 0 mm 918.0 W/m2 CLR
13:42 -4.7 °C -10.8 °C 34347.6 hPa NNW 53.6 km/h 53.6 km/h 50 % 0 mm 958.0 W/m2 CLR
13:47 -4.4 °C -10.7 °C 34347.6 hPa WNW 50.7 km/h 51 km/h 49 % 0 mm 939.0 W/m2 CLR
13:52 -4.3 °C -10.6 °C 34347.6 hPa NNW 59.5 km/h 59.5 km/h 49 % 0 mm 953.0 W/m2 CLR
13:57 -4.3 °C -10.8 °C 34347.6 hPa NNW 56.6 km/h 56.6 km/h 48 % 0 mm 942.0 W/m2 CLR
14:02 -4.3 °C -10.6 °C 34347.6 hPa NNW 56.6 km/h 56.6 km/h 49 % 0 mm 914.0 W/m2 CLR
14:07 -4.2 °C -10.9 °C 34361.1 hPa NNW 62.6 km/h 62.6 km/h 47 % 0 mm 932.0 W/m2 CLR
14:12 -4.2 °C -10.6 °C 34347.6 hPa NNW 36.2 km/h 36.2 km/h 49 % 0 mm 976.0 W/m2 CLR
14:17 -4.2 °C -11.1 °C 34347.6 hPa NNW 50.7 km/h 50.7 km/h 46 % 0 mm 805.0 W/m2 CLR
14:22 -4.2 °C -11.1 °C 34347.6 hPa NNW 47.6 km/h 47.6 km/h 46 % 0 mm 965.0 W/m2 CLR
14:27 -4.1 °C -10.4 °C 34361.1 hPa North 23.8 km/h 23.8 km/h 49 % 0 mm 951.0 W/m2 CLR
14:32 -3.9 °C -10.8 °C 34361.1 hPa NNW 44.7 km/h 44.7 km/h 46 % 0 mm 954.0 W/m2 CLR
14:37 -3.8 °C -10.2 °C 34361.1 hPa NNW 29.8 km/h 29.8 km/h 49 % 0 mm 960.0 W/m2 CLR
14:42 -3.8 °C -10.9 °C 34347.6 hPa NNW 44.7 km/h 44.7 km/h 45 % 0 mm 947.0 W/m2 CLR
14:47 -3.8 °C -10.9 °C 34347.6 hPa NW 44.7 km/h 44.7 km/h 45 % 0 mm 965.0 W/m2 CLR
14:52 -3.8 °C -10.9 °C 34347.6 hPa NW 32.8 km/h 32.8 km/h 45 % 0 mm 830.0 W/m2 CLR
14:57 -3.8 °C -10.9 °C 34361.1 hPa NNW 50.7 km/h 50.7 km/h 45 % 0 mm 380.0 W/m2 CLR
15:02 -4 °C -11.1 °C 34347.6 hPa NW 41.7 km/h 41.7 km/h 45 % 0 mm 251.0 W/m2 CLR
15:08 -4.1 °C -11 °C 34347.6 hPa NW 50.7 km/h 50.7 km/h 46 % 0 mm 285.0 W/m2 CLR
15:13 -4.1 °C -10.6 °C 34347.6 hPa North 32.8 km/h 32.8 km/h 48 % 0 mm 956.0 W/m2 CLR
15:18 -3.8 °C -10.7 °C 34347.6 hPa North 44.7 km/h 44.7 km/h 46 % 0 mm 895.0 W/m2 CLR
15:22 -3.8 °C -10.5 °C 34347.6 hPa NNW 32.8 km/h 32.8 km/h 47 % 0 mm 907.0 W/m2 CLR
15:28 -3.8 °C -10.9 °C 34347.6 hPa NNE 53.6 km/h 53.6 km/h 45 % 0 mm 976.0 W/m2 CLR
15:33 -3.9 °C -11.3 °C 34347.6 hPa NNW 44.7 km/h 44.7 km/h 43 % 0 mm 933.0 W/m2 CLR
15:38 -3.7 °C -10.4 °C 34347.6 hPa NW 29.8 km/h 29.8 km/h 47 % 0 mm 919.0 W/m2 CLR
15:43 -3.6 °C -11.3 °C 34347.6 hPa North 56.6 km/h 56.6 km/h 42 % 0 mm 838.0 W/m2 CLR
15:48 -3.7 °C -10.9 °C 34347.6 hPa NNW 41.7 km/h 41.7 km/h 44 % 0 mm 856.0 W/m2 CLR
15:53 -3.6 °C -11.1 °C 34347.6 hPa NNW 41.7 km/h 41.7 km/h 43 % 0 mm 833.0 W/m2 CLR
15:58 -3.5 °C -11.2 °C 34347.6 hPa WNW 50.7 km/h 50.7 km/h 42 % 0 mm 812.0 W/m2 CLR
16:03 -3.5 °C -11 °C 34347.6 hPa NW 41.7 km/h 41.7 km/h 43 % 0 mm 842.0 W/m2 CLR
16:08 -3.5 °C -11 °C 34347.6 hPa WNW 50.7 km/h 50.7 km/h 43 % 0 mm 775.0 W/m2 CLR
16:13 -3.7 °C -10.9 °C 34347.6 hPa NNW 29.8 km/h 29.8 km/h 44 % 0 mm 851.0 W/m2 CLR
16:18 -3.7 °C -11.2 °C 34347.6 hPa NNW 44.7 km/h 44.7 km/h 43 % 0 mm 833.0 W/m2 CLR
16:23 -3.7 °C -10.9 °C 34347.6 hPa North 59.5 km/h 59.5 km/h 44 % 0 mm 780.0 W/m2 CLR
16:28 -3.6 °C -10.7 °C 34347.6 hPa North 44.7 km/h 44.7 km/h 45 % 0 mm 775.0 W/m2 CLR
16:33 -3.5 °C -10.8 °C 34347.6 hPa NNW 38.8 km/h 38.8 km/h 44 % 0 mm 770.0 W/m2 CLR
16:38 -3.6 °C -10.9 °C 34347.6 hPa NW 38.8 km/h 38.8 km/h 44 % 0 mm 875.0 W/m2 CLR
16:43 -3.6 °C -10.7 °C 34361.1 hPa NW 44.7 km/h 44.7 km/h 45 % 0 mm 338.0 W/m2 CLR
16:48 -3.6 °C -10.7 °C 34361.1 hPa NNE 20.9 km/h 20.9 km/h 45 % 0 mm 877.0 W/m2 CLR
16:53 -3.3 °C -10.7 °C 34361.1 hPa WNW 36.2 km/h 36.2 km/h 44 % 0 mm 798.0 W/m2 CLR
16:58 -3.4 °C -10.9 °C 34361.1 hPa North 68.6 km/h 68.6 km/h 43 % 0 mm 246.0 W/m2 CLR
17:03 -3.7 °C -10.8 °C 34347.6 hPa NNW 26.9 km/h 26.9 km/h 45 % 0 mm 798.0 W/m2 CLR
17:08 -3.6 °C -10.7 °C 34361.1 hPa WNW 38.8 km/h 38.8 km/h 45 % 0 mm 789.0 W/m2 CLR
17:13 -3.5 °C -10.7 °C 34361.1 hPa NNW 50.7 km/h 50.7 km/h 45 % 0 mm 772.0 W/m2 CLR
17:18 -3.8 °C -10.9 °C 34361.1 hPa NNW 32.8 km/h 32.8 km/h 45 % 0 mm 745.0 W/m2 CLR
17:23 -3.7 °C -10.7 °C 34361.1 hPa NNW 38.8 km/h 38.8 km/h 46 % 0 mm 694.0 W/m2 CLR
17:28 -3.6 °C -10.7 °C 34361.1 hPa NNW 31.1 km/h 31.1 km/h 45 % 0 mm 701.0 W/m2 CLR
17:33 -3.6 °C -10.9 °C 34361.1 hPa NNW 47.6 km/h 47.6 km/h 44 % 0 mm 642.0 W/m2 CLR
17:38 -3.8 °C -10.9 °C 34361.1 hPa North 41.7 km/h 41.7 km/h 45 % 0 mm 642.0 W/m2 CLR
17:43 -3.8 °C -10.9 °C 34361.1 hPa North 47.6 km/h 47.6 km/h 45 % 0 mm 608.0 W/m2 CLR
17:45 -3.8 °C -10.7 °C 34361.1 hPa NNW 41.4 km/h 41.4 km/h 46 % 0 mm 589.0 W/m2 CLR
17:50 -3.7 °C -10.7 °C 34361.1 hPa NNW 44.7 km/h 44.7 km/h 45 % 0 mm 596.0 W/m2 CLR
17:55 -3.7 °C -10.8 °C 34361.1 hPa NW 47.6 km/h 47.6 km/h 45 % 0 mm 566.0 W/m2 CLR
18:00 -3.8 °C -10.9 °C 34361.1 hPa NNW 44.7 km/h 44.7 km/h 45 % 0 mm 559.0 W/m2 CLR
18:05 -3.8 °C -10.9 °C 34361.1 hPa WNW 50.7 km/h 50.7 km/h 45 % 0 mm 513.0 W/m2 CLR
18:10 -3.8 °C -10.9 °C 34361.1 hPa NNW 69.8 km/h 69.8 km/h 45 % 0 mm 508.0 W/m2 CLR
18:15 -3.9 °C -11 °C 34361.1 hPa NNW 50.7 km/h 50.7 km/h 45 % 0 mm 513.0 W/m2 CLR
18:20 -4 °C -10.9 °C 34361.1 hPa North 50.7 km/h 50.7 km/h 46 % 0 mm 496.0 W/m2 CLR
18:25 -3.9 °C -11.1 °C 34361.1 hPa NW 47.6 km/h 47.6 km/h 45 % 0 mm 485.0 W/m2 CLR
18:30 -3.9 °C -11 °C 34361.1 hPa NW 44.7 km/h 44.7 km/h 45 % 0 mm 452.0 W/m2 CLR
18:35 -4 °C -11.1 °C 34361.1 hPa NNW 50.7 km/h 50.7 km/h 45 % 0 mm 431.0 W/m2 CLR
18:40 -4.1 °C -10.8 °C 34361.1 hPa NNW 29.8 km/h 29.8 km/h 47 % 0 mm 418.0 W/m2 CLR
18:45 -4 °C -10.9 °C 34361.1 hPa NW 47.6 km/h 47.6 km/h 46 % 0 mm 396.0 W/m2 CLR
18:50 -4.1 °C -10.9 °C 34361.1 hPa North 50.7 km/h 50.7 km/h 46 % 0 mm 374.0 W/m2 CLR
18:55 -4.2 °C -11.1 °C 34371.3 hPa NNE 38.8 km/h 38.8 km/h 46 % 0 mm 369.0 W/m2 CLR
19:00 -4.2 °C -10.9 °C 34371.3 hPa WNW 33.6 km/h 33.6 km/h 47 % 0 mm 380.0 W/m2 CLR
19:05 -4.3 °C -10.9 °C 34371.3 hPa NW 53.6 km/h 53.6 km/h 47 % 0 mm 360.0 W/m2 CLR
19:10 -4.3 °C -11 °C 34371.3 hPa North 38.8 km/h 38.8 km/h 47 % 0 mm 292.0 W/m2 CLR
19:15 -4.3 °C -11 °C 34371.3 hPa NNW 36.2 km/h 36.2 km/h 47 % 0 mm 294.0 W/m2 CLR
19:20 -4.4 °C -11.1 °C 34371.3 hPa NW 49.2 km/h 49.2 km/h 47 % 0 mm 294.0 W/m2 CLR
19:25 -4.5 °C -11.2 °C 34371.3 hPa North 38.8 km/h 38.8 km/h 47 % 0 mm 302.0 W/m2 CLR
19:30 -4.6 °C -11 °C 34371.3 hPa NNW 41.7 km/h 41.7 km/h 48 % 0 mm 271.0 W/m2 CLR
19:35 -4.5 °C -11.2 °C 34384.8 hPa NW 35.7 km/h 35.7 km/h 47 % 0 mm 265.0 W/m2 CLR
19:40 -4.5 °C -11 °C 34384.8 hPa NNW 29.8 km/h 29.8 km/h 48 % 0 mm 211.0 W/m2 CLR
19:45 -4.6 °C -11.1 °C 34384.8 hPa NNW 33.6 km/h 33.6 km/h 48 % 0 mm 214.0 W/m2 CLR
19:50 -4.6 °C -11.1 °C 34384.8 hPa NW 29.8 km/h 29.8 km/h 48 % 0 mm 199.0 W/m2 CLR
19:55 -4.7 °C -11.2 °C 34384.8 hPa NNW 47.6 km/h 47.6 km/h 48 % 0 mm 185.0 W/m2 CLR
20:00 -4.9 °C -11.2 °C 34384.8 hPa NW 44.7 km/h 44.7 km/h 49 % 0 mm 156.0 W/m2 CLR
20:05 -4.9 °C -11.1 °C 34395 hPa NW 35.7 km/h 35.7 km/h 50 % 0 mm 141.0 W/m2 CLR
20:10 -5 °C -10.9 °C 34395 hPa WNW 32.8 km/h 32.8 km/h 51 % 0 mm 135.0 W/m2 CLR
20:20 -5.2 °C -11.2 °C 34395 hPa NNW 29.8 km/h 29.8 km/h 51 % 0 mm 100.0 W/m2 CLR
20:25 -5.2 °C -11.2 °C 34395 hPa WNW 38.8 km/h 38.8 km/h 51 % 0 mm 95.0 W/m2 CLR
20:30 -5.3 °C -11.2 °C 34395 hPa NNW 20.9 km/h 20.9 km/h 51 % 0 mm 77.0 W/m2 FEW
20:35 -5.4 °C -11.3 °C 34405.1 hPa NW 41.4 km/h 41.4 km/h 51 % 0 mm 60.0 W/m2 SCT
20:40 -5.5 °C -11.4 °C 34405.1 hPa WNW 47.6 km/h 47.6 km/h 51 % 0 mm 44.0 W/m2 SCT
20:45 -5.6 °C -11.3 °C 34405.1 hPa WNW 23.8 km/h 23.8 km/h 52 % 0 mm 30.0 W/m2 BKN
20:50 -5.7 °C -11.2 °C 34405.1 hPa NNW 31.1 km/h 31.1 km/h 53 % 0 mm 32.0 W/m2 BKN
20:55 -5.7 °C -11.2 °C 34418.7 hPa WNW 29.8 km/h 29.8 km/h 54 % 0 mm 30.0 W/m2 BKN
21:00 -5.8 °C -11.2 °C 34418.7 hPa NW 44.7 km/h 44.7 km/h 54 % 0 mm 25.0 W/m2 BKN
21:05 -5.9 °C -11.3 °C 34418.7 hPa NW 35.7 km/h 35.7 km/h 54 % 0 mm 19.0 W/m2 BKN
21:10 -6 °C -11.2 °C 34418.7 hPa WNW 35.7 km/h 35.7 km/h 55 % 0 mm 18.0 W/m2 BKN
21:15 -6.1 °C -11.3 °C 34428.8 hPa NW 33.6 km/h 33.6 km/h 55 % 0 mm 14.0 W/m2 BKN
21:20 -6.2 °C -11.4 °C 34428.8 hPa NW 29.8 km/h 29.8 km/h 55 % 0 mm 11.0 W/m2 BKN
21:25 -6.2 °C -11.3 °C 34428.8 hPa WNW 20.9 km/h 20.9 km/h 56 % 0 mm 7.0 W/m2 BKN
21:30 -6.3 °C -11.2 °C 34428.8 hPa NNW 25.9 km/h 25.9 km/h 57 % 0 mm 5.0 W/m2 OVC
21:35 -6.4 °C -11.4 °C 34428.8 hPa NW 41.7 km/h 41.7 km/h 56 % 0 mm 5.0 W/m2 OVC
21:40 -6.4 °C -11.5 °C 34428.8 hPa NNW 44.7 km/h 44.7 km/h 56 % 0 mm 0.0 W/m2 CLR
21:45 -6.5 °C -11.4 °C 34442.4 hPa NW 29.8 km/h 29.8 km/h 57 % 0 mm 0.0 W/m2 CLR
21:50 -6.6 °C -11.3 °C 34442.4 hPa NW 29.8 km/h 29.8 km/h 58 % 0 mm 0.0 W/m2 CLR
21:55 -6.7 °C -11.4 °C 34442.4 hPa NW 17.9 km/h 17.9 km/h 58 % 0 mm 0.0 W/m2 CLR
22:00 -6.8 °C -11.3 °C 34452.6 hPa NW 18.2 km/h 18.2 km/h 59 % 0 mm 0.0 W/m2 CLR
22:05 -6.8 °C -11.3 °C 34452.6 hPa NW 6 km/h 6 km/h 59 % 0 mm 0.0 W/m2 CLR
22:10 -6.8 °C -11.6 °C 34452.6 hPa NW 38.8 km/h 38.8 km/h 58 % 0 mm 0.0 W/m2 CLR
22:15 -6.9 °C -11.6 °C 34452.6 hPa NNW 29.8 km/h 29.8 km/h 58 % 0 mm 0.0 W/m2 CLR
22:20 -6.9 °C -11.5 °C 34462.7 hPa NNW 29.8 km/h 29.8 km/h 59 % 0 mm 0.0 W/m2 CLR
22:25 -7 °C -11.6 °C 34462.7 hPa NNW 29.8 km/h 29.8 km/h 59 % 0 mm 0.0 W/m2 CLR
22:31 -7.1 °C -11.6 °C 34476.3 hPa NW 32.8 km/h 32.8 km/h 59 % 0 mm 0.0 W/m2 CLR
22:36 -7.1 °C -11.5 °C 34476.3 hPa NNW 29.8 km/h 29.8 km/h 60 % 0 mm 0.0 W/m2 CLR
22:41 -7.2 °C -11.6 °C 34476.3 hPa NNW 23.3 km/h 23.3 km/h 60 % 0 mm 0.0 W/m2 CLR
22:46 -7.2 °C -11.6 °C 34486.4 hPa NW 20.9 km/h 20.9 km/h 60 % 0 mm 0.0 W/m2 CLR
22:51 -7.3 °C -11.6 °C 34486.4 hPa NNW 29.8 km/h 29.8 km/h 61 % 0 mm 0.0 W/m2 CLR
22:56 -7.3 °C -11.6 °C 34486.4 hPa North 29.8 km/h 29.8 km/h 61 % 0 mm 0.0 W/m2 CLR
23:01 -7.4 °C -11.6 °C 34486.4 hPa NW 33.6 km/h 33.6 km/h 61 % 0 mm 0.0 W/m2 CLR
23:06 -7.4 °C -11.7 °C 34496.6 hPa NW 35.7 km/h 35.7 km/h 61 % 0 mm 0.0 W/m2 CLR
23:11 -7.4 °C -11.7 °C 34496.6 hPa North 41.7 km/h 41.7 km/h 61 % 0 mm 0.0 W/m2 CLR
23:16 -7.6 °C -11.8 °C 34496.6 hPa NW 36.2 km/h 36.2 km/h 61 % 0 mm 0.0 W/m2 CLR
23:21 -7.6 °C -11.8 °C 34496.6 hPa North 35.7 km/h 35.7 km/h 61 % 0 mm 0.0 W/m2 CLR
23:26 -7.6 °C -11.7 °C 34496.6 hPa NNW 38.8 km/h 38.8 km/h 62 % 0 mm 0.0 W/m2 CLR
23:31 -7.7 °C -11.8 °C 34496.6 hPa NW 35.7 km/h 35.7 km/h 62 % 0 mm 0.0 W/m2 CLR
23:36 -7.7 °C -11.8 °C 34496.6 hPa NNW 44.7 km/h 44.7 km/h 62 % 0 mm 0.0 W/m2 CLR
23:41 -7.8 °C -11.8 °C 34510.1 hPa NW 35.7 km/h 35.7 km/h 63 % 0 mm 0.0 W/m2 CLR
23:46 -7.9 °C -11.7 °C 34510.1 hPa NW 3.1 km/h 3.1 km/h 64 % 0 mm 0.0 W/m2 CLR
23:51 -8 °C -11.7 °C 34510.1 hPa West 9 km/h   65 % 0 mm 0.0 W/m2 CLR
23:56 -8.1 °C -11.7 °C 34510.1 hPa Calm   5.5 km/h 66 % 0 mm 0.0 W/m2 CLR
Lo Temps de Massalio
Compliments of Weather Underground - 1.25 mb